User: anonymous   Login
Location: Chena
(64.8152°N, 147.9227°W)
Time: 18:48:17
(UTC+00:00)
Language:

SPACEBEE-28 - Orbit

View from above orbital plane
View from above orbital plane
View from above satellite
View from above satellite

Ground track
Ground track

The orbit data is extracted from the following two-line orbital elements,

1 46948U 20085V   21172.60608978  .00004918  00000-0  21377-3 0  9998
2 46948  97.3946 309.0727 0012546 283.5892  76.3940 15.22677783 32466
Epoch (UTC): 21 June 2021 14:32:46
Eccentricity: 0.0012546
inclination: 97.3946°
perigee height: 489 km
apogee height: 506 km
right ascension of ascending node: 309.0727°
argument of perigee: 283.5892°
revolutions per day: 15.22677783
mean anomaly at epoch: 76.3940°
orbit number at epoch: 3246

The dashed part of the orbit path shows where the satellite is in the earth's shadow,  

DLR